Location: Eymir
(36.7333°N, 29.7833°E)
Time: 18:44:28
(UTC+00:00)

Atlas Centaur 2 - Pass Details

Date: 14 January 2026
Orbit: 456 x 1249 km, 30.4° (Epoch: 17 February)

Event Time Altitude Azimuth Distance (km) Brightness Sun altitude
Exits shadow 04:28:37 - 245° (WSW) 3,310 4.9 -9.0°
Reaches altitude 10° 04:30:59 10° 239° (WSW) 2,511 4.3 -8.5°
Maximum altitude 04:36:49 45° 168° (SSE) 1,336 3.6 -7.4°
Drops below altitude 10° 04:43:51 10° 99° (E) 3,029 6.7 -6.1°
Sets 04:47:01 0° 94° (E) 4,074 7.4 -5.5°
